TimeAKDT,TemperatureF,Dew PointF,Humidity,Sea Level PressureIn,VisibilityMPH,Wind Direction,Wind SpeedMPH,Gust SpeedMPH,PrecipitationIn,Events,Conditions,WindDirDegrees,DateUTC
12:53 AM,43.0,27.0,53,29.43,10.0,South,25.3,32.2,N/A,,Clear,180,2013-05-17 08:53:00
1:53 AM,43.0,28.0,56,29.42,10.0,South,21.9,34.5,N/A,,Clear,170,2013-05-17 09:53:00
2:53 AM,44.1,25.0,47,29.42,10.0,SSE,11.5,-,N/A,,Scattered Clouds,150,2013-05-17 10:53:00
3:53 AM,44.1,26.1,49,29.40,10.0,South,18.4,26.5,N/A,,Scattered Clouds,180,2013-05-17 11:53:00
4:53 AM,43.0,28.9,58,29.40,10.0,South,13.8,-,N/A,,Overcast,170,2013-05-17 12:53:00
5:53 AM,41.0,30.0,65,29.42,10.0,SW,6.9,-,N/A,,Overcast,230,2013-05-17 13:53:00
6:53 AM,37.0,27.0,67,29.43,10.0,West,5.8,-,N/A,,Overcast,270,2013-05-17 14:53:00
7:53 AM,36.0,27.0,70,29.44,10.0,WNW,8.1,-,N/A,,Overcast,300,2013-05-17 15:53:00
8:53 AM,36.0,28.0,73,29.45,10.0,NW,11.5,-,0.00,,Overcast,310,2013-05-17 16:53:00
9:53 AM,36.0,32.0,86,29.46,8.0,WNW,9.2,-,0.00,Rain,Light Rain,290,2013-05-17 17:53:00
10:28 AM,33.8,30.2,87,29.42,3.0,WNW,13.8,-,0.00,Snow,Light Snow,300,2013-05-17 18:28:00
10:35 AM,33.8,30.2,87,29.42,1.8,NW,12.7,-,0.00,Snow,Light Snow,310,2013-05-17 18:35:00
10:46 AM,33.8,30.2,87,29.43,0.8,NW,11.5,-,0.00,Snow,Light Snow,310,2013-05-17 18:46:00
10:53 AM,33.1,30.9,92,29.47,0.8,NW,9.2,-,0.00,Snow,Light Snow,310,2013-05-17 18:53:00
10:57 AM,33.8,30.2,87,29.43,1.0,NW,10.4,-,0.00,Snow,Light Snow,310,2013-05-17 18:57:00
11:04 AM,33.8,30.2,87,29.43,1.2,WNW,10.4,-,0.00,Snow,Light Snow,300,2013-05-17 19:04:00
11:22 AM,33.8,32.0,93,29.43,3.0,NW,8.1,-,0.01,Snow,Light Snow,310,2013-05-17 19:22:00
11:51 AM,35.6,30.2,81,29.44,6.0,NW,11.5,18.4,0.01,Snow,Light Snow,310,2013-05-17 19:51:00
11:53 AM,35.1,30.9,85,29.49,6.0,NW,13.8,-,0.01,Snow,Light Snow,310,2013-05-17 19:53:00
12:29 PM,35.6,30.2,81,29.45,4.0,WNW,5.8,-,0.00,Snow,Light Snow,290,2013-05-17 20:29:00
12:53 PM,35.1,30.9,85,29.50,5.0,WNW,9.2,-,0.00,Snow,Light Snow,300,2013-05-17 20:53:00
1:10 PM,35.6,30.2,81,29.46,3.0,NW,10.4,-,0.00,Snow,Light Snow,310,2013-05-17 21:10:00
1:21 PM,33.8,30.2,87,29.46,1.8,WNW,11.5,-,0.00,Snow,Light Snow,290,2013-05-17 21:21:00
1:36 PM,33.8,30.2,87,29.46,2.0,WNW,12.7,-,0.00,Snow,Light Snow,300,2013-05-17 21:36:00
1:43 PM,33.8,30.2,87,29.46,1.5,WNW,9.2,-,0.00,Snow,Light Snow,300,2013-05-17 21:43:00
1:53 PM,34.0,30.9,89,29.52,2.0,WNW,12.7,-,0.00,Snow,Light Snow,300,2013-05-17 21:53:00
2:14 PM,33.8,30.2,87,29.47,1.8,WNW,11.5,-,0.00,Snow,Light Snow,290,2013-05-17 22:14:00
2:53 PM,34.0,30.0,85,29.52,1.2,WNW,10.4,-,0.00,Snow,Light Snow,300,2013-05-17 22:53:00
3:26 PM,33.8,30.2,87,29.48,2.5,WNW,10.4,-,0.00,Snow,Light Snow,300,2013-05-17 23:26:00
3:36 PM,33.8,30.2,87,29.49,1.8,WNW,10.4,-,0.00,Snow,Light Snow,300,2013-05-17 23:36:00
3:53 PM,34.0,28.9,82,29.55,1.8,WNW,9.2,19.6,0.00,Snow,Light Snow,290,2013-05-17 23:53:00
4:53 PM,33.1,28.9,85,29.55,1.2,WNW,10.4,-,0.00,Snow,Light Snow,300,2013-05-18 00:53:00
5:29 PM,33.8,30.2,87,29.51,1.0,WNW,8.1,-,0.01,Snow,Light Snow,300,2013-05-18 01:29:00
5:46 PM,32.0,30.2,93,29.51,1.2,WNW,11.5,-,0.01,Snow,Light Snow,300,2013-05-18 01:46:00
5:53 PM,32.0,30.0,92,29.56,2.0,WNW,9.2,-,0.01,Snow,Light Snow,300,2013-05-18 01:53:00
6:05 PM,33.8,30.2,87,29.51,3.0,WNW,9.2,-,0.00,Snow,Light Snow,300,2013-05-18 02:05:00
6:13 PM,32.0,30.2,93,29.51,4.0,WNW,9.2,-,0.00,Snow,Light Snow,300,2013-05-18 02:13:00
6:35 PM,32.0,28.4,87,29.52,4.0,WNW,10.4,-,0.00,Snow,Light Snow,300,2013-05-18 02:35:00
6:48 PM,32.0,28.4,87,29.52,6.0,WNW,11.5,-,0.00,Snow,Light Snow,290,2013-05-18 02:48:00
6:53 PM,32.0,28.0,85,29.58,6.0,WNW,15.0,-,0.00,Snow,Light Snow,300,2013-05-18 02:53:00
7:00 PM,32.0,28.4,87,29.53,6.0,WNW,12.7,-,0.00,Snow,Light Snow,290,2013-05-18 03:00:00
7:08 PM,32.0,28.4,87,29.52,9.0,WNW,12.7,-,0.00,,Overcast,300,2013-05-18 03:08:00
7:23 PM,32.0,28.4,87,29.53,10.0,WNW,10.4,-,0.00,,Overcast,300,2013-05-18 03:23:00
7:46 PM,32.0,28.4,87,29.54,6.0,WNW,9.2,-,0.00,,Overcast,300,2013-05-18 03:46:00
7:53 PM,30.9,27.0,85,29.60,8.0,NW,13.8,19.6,0.00,Snow,Light Snow,310,2013-05-18 03:53:00
8:15 PM,30.2,26.6,86,29.54,10.0,WNW,11.5,21.9,0.00,,Overcast,300,2013-05-18 04:15:00
8:53 PM,30.0,24.1,79,29.62,5.0,WNW,12.7,21.9,0.00,,Haze,300,2013-05-18 04:53:00
9:29 PM,28.4,24.8,86,29.57,3.0,WNW,15.0,23.0,0.00,Snow,Light Snow,300,2013-05-18 05:29:00
9:53 PM,28.9,23.0,78,29.64,3.0,WNW,18.4,23.0,0.00,Snow,Light Snow,300,2013-05-18 05:53:00
10:53 PM,28.0,21.9,78,29.67,9.0,WNW,17.3,23.0,0.00,,Overcast,300,2013-05-18 06:53:00
11:02 PM,26.6,21.2,80,29.60,5.0,WNW,15.0,23.0,0.00,Snow,Light Snow,300,2013-05-18 07:02:00
11:39 PM,26.6,21.2,80,29.61,1.8,WNW,15.0,-,0.00,Snow,Light Snow,300,2013-05-18 07:39:00
11:53 PM,26.1,21.0,81,29.69,1.5,WNW,13.8,25.3,0.00,Snow,Light Snow,300,2013-05-18 07:53:00